Tracking 29040 objects as of 16-Jun-2024
HD Live streaming from Space Station
objects crossing your sky now

YAOGAN-33

Track YAOGAN-33 now!
10-day predictions


NORAD ID: 47302
Int'l Code: 2020-103A
Perigee: 701.0 km
Apogee: 702.0 km
Inclination: 98.1 °
Period: 98.7 minutes
Semi major axis: 7072 km
RCS: Unknown
Launch date: December 27, 2020
Source: People's Republic of China (PRC)
Launch site: Jiuquan Satellite Launch Center, China (JSC)
Your satellite tracking list
Your tracking list is empty




NASA's NSSDC Master Catalog

Two Line Element Set (TLE):
1 47302U 20103A   24168.58467507  .00000820  00000-0  18190-3 0  9997
2 47302  98.1316  58.1958 0000656 125.8486 234.2775 14.59636425184775
Source of the keplerian elements: AFSPC